Dewpoint
-11 -11 -11 -11 -11 -12 -12 -12 -12 -12 -12 -11 -11 -11 -11 -12 -12 -12 -11 -11 -10 -10 -8 -6 -5 -5 -6 -5 -3 -4 -3 -4 -2 -1 -1 2 4 6 11 12 12 11 11 9 9 8 8 7 7 7 8 8 11 11 13 17 15 16 17 16 16 17 22
-11 -11 -11 -12 -12 -12 -13 -12 -13 -13 -11 -11 -11 -11 -12 -12 -11 -11 -11 -10 -10 -9 -6 -6 -5 -6 -4 -5 -3 -2 -2 -2 -2 -1 -1 -1 1 1 7 9 12 12 11 11 10 8 8 8 7 6 7 8 8 11 12 12 13 15 15 15 15 15 15
-11 -11 -11 -12 -12 -12 -12 -12 -12 -11 -11 -10 -11 -11 -11 -12 -12 -11 -11 -10 -10 -10 -9 -7 -6 -6 -5 -6 -6 -5 -4 -2 -1 -0 -0 0 1 1 1 5 9 11 11 11 10 9 8 8 8 7 7 7 8 9 11 12 14 15 16 15 14 13 13
-11 -11 -12 -12 -12 -11 -12 -12 -11 -11 -11 -11 -11 -11 -10 -11 -11 -11 -11 -9 -9 -8 -8 -8 -8 -8 -7 -7 -7 -7 -7 -6 -3 -2 -1 -1 -0 1 -0 -1 5 7 12 12 11 9 9 9 8 7 8 8 9 8 10 10 13 15 16 15 14 12 11
-11 -11 -12 -12 -12 -12 -13 -12 -12 -12 -12 -12 -12 -12 -12 -10 -10 -9 -9 -9 -9 -7 -8 -9 -8 -9 -8 -7 -7 -7 -7 -6 -6 -5 -5 -4 -3 -2 -1 -2 -3 4 10 12 12 10 9 9 8 8 8 8 8 8 10 12 13 13 14 15 15 13 11
-11 -11 -12 -12 -12 -13 -13 -12 -13 -13 -12 -13 -13 -12 -11 -10 -10 -10 -10 -9 -9 -9 -9 -9 -9 -9 -8 -7 -7 -7 -6 -5 -5 -4 -4 -4 -3 -3 -1 0 0 0 6 11 11 11 9 9 8 8 8 8 8 8 8 11 12 13 14 13 13 13 13
-12 -12 -12 -12 -13 -12 -12 -13 -13 -12 -13 -13 -12 -11 -10 -10 -10 -11 -10 -10 -10 -9 -8 -8 -7 -6 -6 -6 -5 -5 -5 -5 -4 -4 -4 -3 -3 -2 -1 -1 -0 2 2 7 11 11 9 9 10 8 8 8 9 8 8 8 9 10 11 11 11 11 11
-12 -13 -13 -13 -13 -13 -13 -12 -12 -13 -12 -11 -11 -11 -11 -11 -11 -10 -9 -9 -8 -8 -7 -6 -4 -3 -3 -3 -3 -3 -3 -3 -4 -4 -3 -3 -2 -1 -1 -1 -0 1 1 3 7 9 9 9 8 7 8 8 9 9 9 8 7 8 8 9 10 10 10
-12 -13 -13 -13 -13 -13 -12 -12 -13 -12 -12 -12 -11 -10 -9 -9 -8 -7 -7 -6 -5 -5 -5 -4 -2 -2 -2 -1 0 1 1 1 1 -1 -2 -1 0 0 0 -0 -0 0 -0 1 5 8 10 8 7 9 7 8 8 10 8 9 8 9 9 9 10 10 10
-12 -12 -13 -13 -13 -13 -13 -13 -13 -11 -0 6 -1 -1 -1 -1 -2 -2 -3 -3 -2 -2 -1 -1 -1 -0 2 3 4 4 4 5 5 6 4 3 3 3 2 1 1 1 2 2 1 6 9 10 8 9 7 7 9 8 9 9 9 9 8 9 10 10 11
-13 -13 -13 -14 -13 -14 -14 -14 -13 2 7 10 12 6 2 2 2 1 1 -0 -1 -1 -2 -2 -1 -1 1 1 2 1 3 4 4 5 6 6 6 5 4 3 2 1 2 1 2 4 8 9 9 10 8 9 8 9 8 9 9 8 10 8 8 6 10
-14 -14 -14 -14 -14 -14 -15 -14 -5 6 8 10 11 5 -4 -1 0 1 0 -0 -0 -1 -1 -1 -1 -1 -1 -1 -0 -0 0 1 3 4 5 6 6 8 12 11 5 2 2 2 1 1 5 9 9 10 11 10 11 9 10 11 11 11 10 10 8 7 7
-14 -15 -15 -14 -15 -15 -14 -14 0 5 8 8 5 1 3 -3 1 1 0 1 1 1 1 0 -0 -0 -0 -0 2 2 1 1 1 3 4 4 5 5 10 12 13 11 7 5 4 3 4 7 10 12 11 12 11 13 12 12 11 11 10 10 9 7 6
-15 -15 -15 -15 -15 -15 -15 -15 -2 5 8 4 3 6 3 -1 2 2 2 2 2 2 1 1 1 0 0 1 1 2 2 2 2 2 2 3 3 3 5 8 11 10 8 8 7 6 5 8 11 10 12 14 15 13 12 12 11 12 11 10 9 10 10
-16 -16 -15 -16 -16 -16 -16 -16 2 7 7 3 8 9 6 2 3 2 2 2 2 1 1 1 1 1 1 1 1 1 3 1 1 2 1 2 2 3 4 5 6 6 7 7 8 8 9 10 12 13 13 13 14 13 13 13 11 12 11 11 12 11 12
-16 -16 -16 -16 -16 -16 -16 -16 3 6 0 6 8 6 0 1 0 0 1 1 2 2 2 2 2 1 1 1 1 2 11 9 3 3 1 1 1 2 3 5 10 13 12 10 8 8 10 11 13 16 15 14 13 13 14 13 13 12 11 10 9 8 8
-17 -17 -17 -17 -16 -16 -16 -15 -5 6 4 5 9 6 -0 1 1 1 2 2 2 3 3 3 2 2 1 2 2 3 12 10 8 3 3 2 2 2 2 3 5 12 15 15 16 17 17 16 16 18 19 20 19 15 13 11 10 10 10 9 8 8 7
-17 -17 -17 -17 -17 -16 -16 -15 -5 6 -1 5 9 9 2 1 1 1 2 2 2 3 3 4 6 6 3 2 2 10 13 10 6 3 4 3 3 3 3 4 5 6 8 15 16 17 17 17 16 17 18 19 21 21 17 10 9 10 10 9 8 7 7
-18 -18 -17 -17 -16 -14 -14 -14 -7 5 4 2 7 3 1 2 1 1 1 2 2 4 4 5 6 7 6 5 7 13 11 9 9 3 4 5 4 3 3 4 7 7 8 8 9 10 12 13 16 15 15 16 18 19 19 14 12 11 10 9 8 8 7
-18 -19 -18 -17 -16 -16 -15 -14 -13 -8 7 2 4 9 -0 -0 0 1 2 3 3 4 5 6 6 6 9 14 13 12 10 10 10 6 7 7 5 4 5 7 7 8 8 9 9 10 11 12 14 15 16 16 16 17 17 16 13 13 11 9 9 8 7
-19 -19 -18 -17 -16 -15 -14 -13 -12 -9 8 8 8 10 5 -0 2 4 5 5 5 6 7 7 6 6 7 11 13 13 10 12 14 13 8 8 7 7 8 11 7 8 11 10 10 10 10 9 11 11 13 14 15 15 16 17 15 14 13 11 9 8 8
-20 -20 -19 -17 -16 -15 -13 -12 -10 -10 3 9 8 8 11 2 3 6 6 6 7 7 6 6 5 5 6 8 13 14 13 15 14 13 8 9 15 15 17 11 9 9 9 10 10 9 9 9 10 11 11 12 14 16 16 18 15 13 13 13 12 10 9
-20 -19 -19 -17 -17 -15 -13 -12 -11 -7 -7 1 9 10 11 11 9 12 6 6 8 8 7 6 6 6 8 9 13 14 15 15 15 13 11 14 15 15 15 13 10 10 9 10 10 9 9 9 10 10 11 13 15 16 17 17 16 14 13 13 13 14 13
-20 -19 -18 -17 -17 -16 -14 -12 -11 -8 -6 -6 5 10 9 12 13 13 7 7 8 9 7 6 5 6 12 11 12 14 14 14 12 10 16 16 16 14 14 13 11 10 10 10 10 10 9 9 10 10 11 12 13 13 15 16 15 13 14 14 13 15 14
-18 -17 -17 -17 -16 -15 -13 -12 -12 -11 -8 -5 -3 9 10 12 13 9 8 6 7 8 8 9 12 12 12 12 13 13 12 10 11 14 14 14 15 13 14 13 11 10 10 10 9 9 9 9 9 10 10 12 13 14 16 15 14 14 13 13 14 14 14
-17 -17 -17 -16 -15 -14 -14 -13 -13 -12 -11 -7 -4 -1 6 10 6 6 6 6 6 8 9 9 10 8 7 7 8 7 8 10 12 13 15 16 16 14 13 6 3 6 9 9 8 8 8 8 8 9 10 11 13 12 13 15 14 14 13 13 13 12 13
-17 -17 -17 -16 -14 -14 -14 -14 -13 -12 -11 -9 -6 -3 -1 0 1 4 4 2 3 6 4 4 6 7 10 11 12 12 13 13 12 11 11 12 12 12 9 5 8 9 8 8 8 7 7 7 8 9 9 10 10 10 12 14 14 13 13 13 12 11 11
-17 -16 -14 -14 -14 -14 -15 -15 -14 -13 -12 -9 -5 -3 -2 -0 0 0 -1 -1 0 2 2 2 6 5 5 7 8 8 7 7 8 8 9 11 12 9 7 9 11 11 9 8 8 7 7 8 8 8 8 8 9 9 11 14 14 13 13 13 12 11 10
-14 -12 -12 -11 -13 -14 -15 -15 -14 -13 -3 -5 -1 -1 -2 -0 -0 1 -2 -0 2 -1 -3 -4 -5 -4 -3 -1 1 3 4 6 6 6 8 10 11 9 7 10 9 8 7 7 7 7 7 7 7 7 8 8 8 9 10 13 14 14 13 13 12 10 9
-15 -14 -11 -11 -13 -13 -13 -14 -13 -4 1 -3 -4 -2 1 1 2 6 -0 -1 -1 -4 -8 -8 -9 -8 -8 -6 -5 -3 -1 1 3 5 6 7 11 11 10 10 9 8 7 8 7 7 7 7 7 7 7 7 7 7 9 12 15 14 14 13 12 10 10
2 -1 -8 -12 -13 -11 -8 -8 -8 -6 -7 -1 -3 3 1 2 7 4 3 -1 -6 -10 -11 -11 -11 -11 -11 -10 -9 -7 -6 -4 -1 2 4 6 7 9 10 11 10 9 9 8 8 8 8 8 7 7 7 7 7 7 8 9 13 13 13 12 12 10 10
-6 -2 -3 -10 -14 -10 -12 -9 -9 -7 -6 -1 2 2 4 8 6 8 5 -3 -5 -12 -13 -13 -13 -13 -13 -12 -12 -10 -9 -7 -6 -4 -1 3 6 7 8 9 10 11 10 9 8 8 8 8 7 7 7 7 7 7 7 9 11 12 13 11 11 10 10
-0 -1 -4 -5 -3 -2 -2 -14 -14 -13 -8 4 -1 7 -1 3 3 3 0 -6 -14 -15 -15 -14 -14 -14 -13 -13 -13 -13 -12 -10 -8 -7 -4 -1 4 7 7 8 10 13 11 10 9 9 8 8 8 8 8 8 8 7 6 8 10 11 12 12 11 10 11
-5 -6 -12 -7 -3 -9 -3 -0 -4 0 4 6 6 5 2 -5 -9 1 2 -8 -16 -16 -16 -16 -15 -14 -14 -14 -13 -13 -13 -12 -11 -9 -6 -4 -1 4 8 9 10 11 11 10 10 9 9 9 8 8 7 8 7 7 7 8 9 10 11 11 12 12 11
-26 -22 -19 -21 -18 -15 -13 -11 -9 -8 -5 -3 -2 -2 -3 -3 -18 -19 -18 -18 -17 -17 -17 -17 -16 -16 -15 -15 -15 -14 -14 -14 -13 -11 -9 -6 -3 1 6 9 9 9 10 11 11 10 10 9 9 9 9 8 8 7 7 7 8 9 10 10 11 12 12
-27 -27 -22 -20 -19 -18 -15 -13 -11 -10 -7 1 3 -0 -11 -20 -21 -20 -19 -19 -19 -18 -17 -17 -16 -16 -16 -15 -15 -15 -15 -15 -14 -13 -11 -7 -3 2 6 7 9 10 10 11 11 10 11 11 10 10 10 9 9 8 8 7 8 9 10 10 10 11 11